ECMWFFLT1_500_rhum_009.txt.gz
RH
60 51 49 46 38 41 42 42 48 51 52 49 40 35 32 30 29 29 33 38 44 48 46 43 39 33 27 22 20 20 19 16 15 17 23 30 37 40 37 32 28 27 28 27 27 30 38 46 52 56 56 56 56 55 51 45 49 61 66 61 55 47 35
55 55 56 51 39 42 46 44 46 47 45 43 35 31 30 28 27 24 23 27 34 43 49 51 48 41 34 29 25 22 16 15 19 24 30 35 38 37 32 29 27 27 29 29 32 40 52 60 62 62 61 61 66 69 69 64 60 66 72 71 65 58 51
55 58 52 46 40 45 52 47 46 45 43 41 36 34 33 29 26 22 21 22 25 33 42 49 50 45 38 31 24 17 16 21 25 29 32 34 35 33 31 30 30 34 37 37 41 52 65 69 63 56 54 55 57 60 63 66 68 72 77 81 79 70 61
52 53 43 41 41 49 54 51 53 55 54 54 49 44 39 32 25 21 20 19 20 26 36 47 51 46 38 28 19 19 23 26 27 30 32 32 32 30 30 35 40 45 46 44 47 58 70 68 54 48 50 52 54 59 61 63 68 76 84 91 94 89 79
48 47 42 42 45 51 55 56 59 61 63 63 60 56 48 36 24 17 17 17 17 23 34 44 46 41 33 25 22 25 26 25 28 32 31 28 26 28 35 47 53 54 54 55 55 61 65 56 47 50 56 58 66 76 82 81 82 84 85 90 96 99 96
51 41 39 40 47 55 57 58 61 61 64 65 64 63 56 43 27 17 15 14 13 17 26 36 38 35 31 29 27 26 23 26 31 31 27 25 28 36 48 57 59 59 63 64 56 53 53 46 49 60 63 68 81 88 90 92 93 91 87 87 92 97 100
53 42 41 39 47 57 56 57 62 63 65 66 65 64 61 52 36 21 15 12 10 11 15 21 26 28 29 26 22 21 25 30 30 25 26 33 41 47 51 52 55 61 71 74 60 48 45 45 56 73 75 76 82 82 83 86 84 83 85 87 90 93 97
55 47 51 45 45 54 57 59 64 65 65 65 66 65 65 60 45 27 17 12 9 8 9 11 14 17 19 19 18 22 28 27 24 28 37 52 62 56 45 43 49 61 74 80 72 62 59 59 70 87 88 80 72 69 75 81 77 71 71 73 75 76 79
57 50 54 47 42 49 58 62 63 62 60 60 64 65 64 65 55 36 21 15 12 11 10 11 13 14 13 14 18 23 26 24 27 35 44 61 73 64 52 53 59 68 78 82 79 76 76 75 80 88 88 77 66 62 71 79 76 69 65 66 67 66 68
55 55 55 45 43 50 58 63 61 58 56 55 57 59 61 68 65 46 26 19 19 18 17 16 20 22 16 14 20 23 25 30 34 39 46 57 62 54 57 70 76 77 79 82 81 76 76 81 84 84 84 76 62 55 59 64 66 68 69 71 70 68 71
53 61 58 45 48 54 59 60 54 48 47 46 48 53 61 69 67 50 31 24 26 25 21 19 22 26 20 18 23 25 29 35 36 38 46 50 47 51 67 80 85 83 76 76 79 75 74 78 76 72 72 65 52 43 38 32 38 51 57 57 53 50 53
52 58 54 46 50 53 53 50 42 38 36 36 42 50 59 67 67 55 37 28 29 27 23 24 27 27 23 22 25 27 32 36 33 32 40 46 51 65 76 76 75 72 62 60 65 65 64 62 58 54 50 46 43 42 35 23 19 26 31 29 25 22 25
41 48 47 46 52 51 47 43 36 33 33 34 42 52 61 67 67 57 39 29 31 28 24 26 26 24 24 25 27 29 32 32 27 25 37 52 58 59 59 55 52 49 44 46 52 55 58 56 54 51 44 42 44 42 40 35 25 18 15 15 13 11 17
33 41 42 45 51 48 43 40 35 31 32 36 45 56 63 64 58 47 33 29 31 28 24 24 23 24 27 28 28 30 32 29 24 24 33 44 47 43 42 41 38 35 36 39 44 52 60 60 61 61 57 54 52 47 45 44 38 27 17 14 13 11 12
33 40 39 36 42 45 41 38 34 33 40 48 53 57 56 52 45 36 29 29 30 28 25 24 25 27 29 30 30 31 30 28 28 32 35 35 35 36 36 35 36 40 45 47 50 57 62 64 67 72 70 65 62 58 53 49 46 37 24 17 17 15 12
32 43 42 33 34 40 40 39 40 43 52 59 60 59 56 51 44 36 31 31 31 29 27 25 26 27 28 29 29 29 30 32 34 37 36 32 34 40 44 48 52 57 61 62 63 66 68 70 73 76 78 78 74 69 65 58 51 43 31 23 19 17 15
30 39 42 38 37 38 38 39 44 49 57 62 61 61 63 59 50 42 36 32 31 29 27 27 28 28 27 26 26 27 30 33 34 35 34 35 42 51 57 62 66 67 69 68 68 69 69 70 72 75 81 87 85 81 79 72 60 46 33 23 19 18 17
26 35 40 40 40 38 36 37 41 47 57 62 62 64 66 63 55 46 38 32 30 30 28 27 27 26 24 22 22 26 29 29 30 33 38 45 54 60 63 67 72 75 76 74 71 70 69 71 75 79 84 90 91 89 89 85 72 53 34 23 20 18 16
19 32 40 42 43 42 40 39 40 44 53 59 62 64 64 63 59 50 40 32 31 31 28 25 24 24 24 23 26 31 35 37 39 43 50 58 64 68 69 70 73 75 75 73 70 70 73 76 82 87 91 94 95 95 95 93 82 62 38 23 21 18 16
10 21 31 38 43 44 44 46 45 46 50 56 60 61 61 62 61 54 42 33 32 33 28 23 21 22 26 29 33 40 46 49 52 54 58 64 71 77 76 72 72 71 69 68 68 72 78 80 84 90 94 96 97 98 99 95 86 69 42 23 20 19 17
7 13 22 35 46 44 42 48 51 49 50 54 57 57 59 61 61 56 45 37 39 40 32 26 25 30 36 40 42 47 52 56 59 61 63 69 75 81 81 76 71 69 68 69 69 72 76 79 84 90 94 98 99 99 98 93 87 72 45 24 20 19 17
5 10 15 29 46 47 42 47 52 50 49 52 55 56 59 60 59 56 50 46 47 46 40 38 40 45 53 57 57 60 62 63 64 66 69 74 79 85 88 82 74 71 72 71 69 68 68 70 77 87 96 100 98 98 96 91 85 70 43 25 21 20 18
8 17 20 28 39 41 41 47 50 48 47 48 50 53 56 57 56 57 55 52 50 51 51 51 53 57 63 63 61 63 66 67 70 72 74 77 83 90 90 80 70 68 69 68 67 68 67 67 73 87 99 98 92 96 97 89 80 65 40 25 23 21 19
8 16 21 27 32 34 40 47 48 48 46 42 43 47 52 56 60 60 57 53 52 55 57 56 60 66 66 61 58 58 58 59 67 76 78 79 86 90 82 70 64 63 63 64 64 63 62 64 74 89 97 91 86 95 97 85 74 57 35 26 26 23 22
5 7 10 20 28 31 38 46 48 47 46 42 42 46 51 56 60 59 56 55 55 57 58 59 64 66 61 57 57 57 55 53 61 74 79 80 86 84 73 67 68 66 62 59 57 53 52 61 74 82 84 81 82 89 89 78 64 47 31 27 28 26 27
6 5 6 16 26 27 32 43 47 46 48 49 47 48 51 54 55 56 55 55 57 58 58 58 59 59 57 56 56 55 55 55 60 71 79 85 88 80 69 67 69 65 58 52 47 45 48 58 66 67 68 75 80 81 78 68 53 37 28 28 30 30 33
6 5 6 16 24 26 30 40 47 48 51 53 50 50 51 53 53 54 55 55 56 56 56 56 56 56 55 55 55 55 56 59 63 71 82 88 84 75 69 67 62 54 48 42 40 43 50 56 58 57 61 69 71 66 60 51 40 30 26 26 29 33 37
5 5 9 17 25 29 33 41 49 51 50 50 50 51 52 53 54 54 55 55 55 54 54 55 54 52 52 54 57 59 62 66 68 73 84 89 82 74 70 63 52 44 40 39 42 48 51 50 48 47 47 48 46 43 39 34 29 26 25 26 31 36 39
6 7 11 19 30 38 41 43 47 50 50 50 50 50 51 52 52 52 53 53 52 52 52 51 50 55 60 62 62 64 68 71 73 77 84 85 79 73 68 59 50 44 41 41 44 46 44 40 36 34 32 30 29 28 28 28 28 27 28 30 35 40 41
10 11 14 22 31 39 44 43 44 48 51 51 50 50 52 52 50 50 51 50 51 51 50 53 61 71 74 70 67 68 69 70 76 82 83 79 75 71 65 58 54 49 43 42 43 39 35 32 28 26 25 24 24 26 27 29 29 30 32 34 37 41 41
24 23 24 27 28 34 42 46 48 50 51 50 50 51 52 52 51 51 51 50 51 51 52 59 69 74 72 68 67 68 66 67 76 82 78 74 74 70 63 60 60 54 46 43 40 35 31 29 26 25 25 25 27 29 30 30 31 33 34 36 40 41 36
30 30 33 34 31 34 42 48 51 52 51 51 51 50 51 53 53 52 51 51 53 54 57 64 68 68 67 67 67 65 61 64 74 78 75 74 73 68 64 65 63 54 47 43 40 35 32 29 27 26 26 27 30 31 30 31 32 32 32 37 45 41 32
32 34 36 38 38 39 43 47 50 50 50 50 50 50 52 53 52 52 53 54 56 59 63 66 67 67 66 64 62 60 58 62 73 79 78 77 73 67 67 69 62 51 45 43 40 37 35 32 30 28 26 28 30 30 32 32 29 30 38 45 45 35 27
43 42 42 43 43 43 43 46 49 49 49 49 49 51 53 54 54 56 57 58 60 63 65 67 68 68 64 58 58 59 59 63 73 79 79 79 76 72 74 73 61 48 44 43 40 39 37 33 29 26 25 28 30 31 33 32 29 34 44 45 35 25 23
52 50 50 50 49 47 47 47 48 48 48 49 50 52 54 56 59 61 62 64 65 64 65 68 68 65 59 55 56 60 63 69 76 81 84 84 81 79 79 73 57 46 46 45 40 37 33 28 25 24 25 29 32 32 32 30 29 32 34 28 21 21 21
55 54 53 53 52 51 50 48 47 47 48 49 51 54 56 60 64 65 66 67 67 66 68 71 68 60 54 53 57 65 74 77 79 83 85 83 81 82 77 64 52 48 48 43 35 30 26 23 23 25 28 30 31 31 29 28 26 25 22 18 18 21 21
60 61 59 57 56 54 52 50 50 49 50 52 56 59 62 64 66 66 66 65 65 69 73 72 66 58 53 53 59 71 79 77 76 83 83 78 79 81 69 54 51 51 45 36 29 26 24 23 25 28 30 32 31 29 26 24 22 21 18 18 22 25 27
69 69 67 66 66 64 60 59 57 56 57 60 62 64 67 68 67 66 66 68 72 77 76 71 63 56 54 58 64 72 76 76 79 88 87 80 79 75 60 51 52 48 38 30 27 27 26 25 27 29 31 30 28 25 22 21 20 19 21 26 31 33 35

ECMWFFLT1_500_rhum_015.txt.gz
RH
58 50 43 43 40 36 34 36 42 45 46 48 47 48 47 41 36 33 33 33 32 35 37 39 44 48 43 33 22 14 10 7 8 10 13 17 19 20 22 21 19 17 18 26 32 28 29 39 47 50 51 47 45 52 60 59 54 56 58 51 49 53 54
55 49 40 41 41 40 39 39 41 42 44 48 48 49 48 41 35 33 33 34 33 34 34 34 37 42 45 44 38 30 22 15 14 17 23 27 29 29 26 22 19 16 19 27 29 29 38 49 54 55 52 49 55 60 58 55 52 55 55 44 36 36 37
50 52 46 45 45 46 48 47 48 47 47 50 53 51 48 41 33 29 29 31 32 31 31 30 29 31 35 40 42 42 39 34 31 31 35 37 37 33 28 22 17 16 21 26 27 34 48 54 55 58 57 57 60 58 54 51 48 47 43 35 29 25 24
58 64 54 49 51 54 57 58 58 57 52 50 54 54 48 39 31 26 27 29 29 27 26 24 22 22 23 26 31 34 38 41 43 44 44 42 39 34 27 19 16 19 23 23 29 42 50 51 54 60 61 59 54 51 49 42 37 36 33 29 28 27 25
66 74 62 51 52 57 64 67 66 66 60 54 56 55 46 36 28 25 26 27 27 24 21 19 17 16 16 17 18 20 23 29 38 43 42 39 37 31 22 16 17 20 23 28 37 43 46 51 57 59 56 51 46 43 38 32 29 30 30 29 30 30 29
66 72 63 54 55 61 68 69 67 66 63 60 59 53 43 33 26 25 26 27 27 25 22 20 17 14 12 12 13 13 14 18 28 35 35 34 31 23 16 14 17 22 31 39 40 41 51 58 55 49 44 41 39 36 33 31 30 30 31 32 30 30 30
67 65 62 58 59 64 67 65 64 63 61 61 58 50 40 32 28 28 29 30 32 31 27 23 20 15 11 10 9 10 13 18 25 28 27 25 20 14 13 14 19 32 44 48 47 55 63 57 44 38 35 33 33 33 33 32 31 31 31 29 26 25 25
63 58 52 52 56 60 59 57 57 57 57 57 53 44 38 34 31 32 33 34 37 37 33 27 23 17 11 9 7 8 13 18 21 21 18 15 13 12 14 16 26 42 51 55 60 65 58 43 35 33 29 27 29 30 30 29 30 30 29 28 28 28 27
67 60 48 45 51 58 58 55 56 58 56 53 48 43 42 41 39 39 39 38 38 40 41 37 29 18 11 9 8 8 10 12 14 13 11 11 13 14 17 21 31 45 54 59 59 51 40 33 32 30 27 27 28 29 30 30 33 38 39 39 39 38 38
68 59 50 49 51 55 58 56 59 62 57 53 50 47 49 50 49 47 43 38 37 40 45 43 32 19 13 12 11 11 12 15 16 13 12 14 16 17 21 27 36 48 56 54 44 35 31 30 29 29 30 32 33 34 37 41 47 53 56 54 50 48 47
63 50 48 56 54 53 59 61 62 61 56 54 53 51 54 57 56 52 46 43 42 40 43 43 32 21 16 14 14 14 17 21 20 15 14 17 19 22 27 34 46 53 50 41 34 31 29 28 28 29 31 35 40 44 47 53 56 56 56 55 52 49 47
68 59 56 60 59 59 63 66 68 65 57 54 52 51 54 57 56 53 49 46 45 39 38 38 31 21 17 16 15 17 21 25 22 17 17 20 23 26 29 39 50 51 42 36 34 31 28 27 27 29 32 38 44 48 49 50 49 48 49 52 52 48 43
70 70 67 63 61 62 62 66 71 70 63 58 53 49 52 56 54 50 46 43 41 36 32 32 28 20 18 17 15 17 22 23 20 18 20 24 26 27 29 35 42 42 40 38 34 29 27 27 28 31 36 39 41 44 44 44 44 44 45 50 53 49 43
66 67 68 66 65 63 63 66 70 71 67 63 57 50 50 53 52 48 44 38 33 28 25 26 23 17 17 18 15 18 21 19 17 18 20 24 27 28 31 33 36 41 44 40 33 30 28 29 33 35 36 37 39 42 44 46 47 48 49 53 54 48 42
64 62 64 67 68 65 64 66 68 68 66 63 61 57 52 50 47 47 46 38 29 24 21 21 19 15 16 17 17 20 20 16 16 18 20 25 28 32 35 34 37 45 46 39 34 32 31 34 38 39 40 41 42 44 48 50 51 51 52 50 46 42 39
63 61 62 66 67 66 65 66 68 65 62 62 64 62 58 53 45 42 45 41 32 25 21 20 17 13 14 17 20 20 17 15 16 19 22 26 29 32 33 32 36 43 44 41 38 36 36 40 43 46 49 49 46 46 48 51 52 51 48 43 39 38 38
68 63 62 64 66 67 65 64 63 63 62 62 61 61 61 59 50 44 42 39 33 27 22 21 17 12 13 17 19 17 14 15 18 20 23 25 28 31 31 30 37 43 45 45 46 46 48 50 53 54 54 51 48 47 48 50 53 50 46 43 40 39 38
75 72 67 66 65 63 63 63 63 66 70 69 62 57 56 54 51 49 44 37 34 30 24 22 19 14 13 15 15 15 16 18 19 20 24 29 37 42 41 40 43 47 49 51 52 54 55 54 54 53 52 52 51 52 53 54 56 55 51 46 42 39 39
73 77 76 74 69 64 65 69 70 71 74 73 65 59 55 47 40 42 43 39 36 32 27 24 21 15 13 14 14 14 17 20 22 25 34 44 51 53 52 51 51 51 53 53 54 54 52 51 51 51 51 54 56 59 61 63 64 62 56 49 42 38 38
63 69 75 75 70 67 68 72 73 74 74 73 68 64 61 51 40 39 42 40 37 33 28 26 23 18 15 14 14 15 19 24 29 38 49 55 57 56 55 54 53 53 53 53 53 53 52 52 52 50 51 54 58 62 64 67 70 67 60 53 43 37 36
57 59 69 74 71 70 71 69 69 72 71 69 67 66 65 59 47 42 44 43 37 32 28 27 27 24 18 15 15 16 20 28 38 49 56 58 57 57 55 53 52 53 53 52 53 55 55 54 52 50 50 53 60 65 65 66 68 67 63 57 45 36 33
60 56 64 73 74 74 75 73 69 65 61 58 59 62 66 63 52 46 48 46 37 30 29 30 31 29 23 18 16 16 21 33 46 53 56 57 58 57 56 54 53 52 52 53 56 59 57 54 53 52 53 61 74 78 73 68 65 64 66 61 47 37 32
63 59 61 69 74 74 75 79 75 66 58 54 51 53 58 59 54 52 50 44 35 32 32 31 31 32 28 21 19 20 24 33 45 52 55 58 59 58 58 57 54 52 52 55 61 63 58 55 56 58 63 77 88 85 75 69 63 61 65 63 51 40 35
60 59 58 65 73 75 73 76 80 77 71 63 52 48 55 60 57 54 50 42 37 37 36 35 33 32 28 24 26 30 31 35 42 48 55 60 63 63 63 62 58 54 54 59 64 63 61 61 62 63 71 85 91 85 75 67 60 57 61 64 56 44 39
53 56 55 59 69 76 74 72 74 75 75 72 58 47 55 65 62 52 44 41 41 41 39 37 34 31 27 25 29 39 45 45 44 46 55 64 68 70 70 66 59 55 57 63 64 64 66 68 63 60 70 82 87 84 76 66 59 57 58 64 63 51 42
37 40 41 44 53 65 70 70 68 65 65 69 61 49 53 63 59 49 41 39 41 41 38 37 34 31 30 26 29 43 54 52 47 51 59 66 70 72 73 67 57 56 62 65 65 68 71 68 60 56 66 81 85 79 72 65 62 61 60 65 69 58 45
26 24 25 29 37 49 62 71 74 71 64 60 54 48 50 52 49 46 42 37 32 29 30 36 36 33 31 29 31 43 52 51 51 57 61 65 71 75 73 63 55 59 65 65 67 72 71 64 57 54 62 77 83 78 75 72 68 67 65 68 71 61 47
36 30 26 26 32 43 56 65 69 73 73 67 56 48 44 40 35 34 35 33 28 23 24 29 33 33 32 31 33 40 46 48 54 61 63 66 72 75 69 60 57 62 65 63 66 71 67 60 56 53 57 72 82 80 79 79 76 73 69 68 71 63 49
44 42 36 31 30 36 45 49 50 60 74 78 71 60 50 40 28 24 30 36 36 32 27 22 25 33 35 33 33 35 38 45 56 63 65 68 72 73 65 58 60 64 63 61 66 69 64 58 57 56 61 76 87 86 84 85 83 78 69 65 70 66 51
47 49 47 41 36 34 39 41 39 46 62 72 74 74 65 47 29 23 30 36 38 41 35 21 21 34 38 34 33 33 36 48 59 64 67 70 73 70 61 57 63 66 62 63 68 69 65 58 58 63 72 82 87 87 89 92 87 77 67 65 71 70 55
50 51 51 48 42 35 38 43 39 37 44 52 59 66 65 55 43 33 28 25 29 39 38 23 18 32 40 37 36 36 40 51 61 66 69 71 70 66 60 59 64 64 61 63 69 72 69 60 57 68 82 88 88 83 82 86 82 71 63 64 70 70 55
52 53 53 53 49 43 43 48 47 41 39 41 46 54 55 53 52 46 35 25 23 31 38 31 25 34 44 43 40 41 45 56 65 68 70 69 66 62 58 58 61 62 61 64 68 71 68 57 56 72 87 91 89 84 80 82 78 65 59 64 69 64 51
53 55 55 53 51 48 46 49 52 53 53 51 55 65 65 56 52 47 36 26 23 29 39 42 39 43 48 47 46 46 50 60 69 70 67 65 60 57 56 57 59 62 64 66 68 70 67 59 63 82 92 87 87 90 90 85 74 62 60 66 64 55 47
51 53 54 50 46 46 49 54 56 59 63 58 59 73 80 74 69 57 34 21 26 35 42 45 46 47 47 45 46 47 47 54 64 65 62 58 55 54 56 56 58 64 70 72 71 70 68 64 69 84 89 81 80 89 90 77 64 60 61 61 55 49 46
46 48 47 43 37 34 39 47 52 59 62 50 42 55 66 66 72 72 46 24 25 35 39 40 41 42 42 44 50 53 51 54 59 59 56 55 54 54 56 56 59 65 67 67 68 71 73 74 76 82 81 71 71 82 81 68 59 60 60 55 51 48 44
46 47 43 38 34 30 31 38 43 50 52 36 25 37 46 47 63 78 64 43 40 44 45 44 44 48 56 60 61 60 58 58 58 56 54 55 54 53 56 58 58 57 60 66 73 77 82 85 85 83 78 67 67 76 77 66 60 61 57 52 48 44 39
44 42 37 32 27 22 22 28 30 35 40 31 23 30 39 44 62 78 73 61 58 56 55 59 60 63 67 66 62 60 58 57 57 55 54 55 54 55 59 60 59 64 73 79 80 79 80 83 86 88 83 72 69 75 74 65 59 57 53 48 43 38 35
38 35 35 40 43 40 35 32 30 32 35 29 25 36 51 60 75 88 85 72 63 58 60 66 64 57 55 56 58 59 58 55 54 54 55 56 55 55 56 57 62 73 80 77 74 75 73 73 80 87 82 73 72 73 67 58 53 50 46 40 36 35 33

ECMWFFLT1_500_rhum_021.txt.gz
RH
58 62 62 58 56 54 48 39 34 34 35 34 34 33 30 25 22 20 22 26 30 33 35 33 31 28 28 29 32 36 39 38 34 28 19 13 10 8 8 7 7 7 8 12 20 24 21 19 19 20 31 43 45 45 51 55 56 55 50 38 29 27 26
49 51 59 61 57 54 53 48 40 35 33 33 34 34 30 27 27 30 34 37 39 39 38 37 35 32 29 29 30 34 39 41 39 36 30 21 14 10 8 10 10 10 13 19 27 27 22 19 17 21 35 43 45 52 58 56 54 52 43 31 27 27 25
41 38 47 57 57 54 53 51 47 40 36 36 37 34 30 31 36 40 43 42 41 39 37 39 40 36 30 27 29 34 38 42 43 41 37 31 23 17 14 14 14 15 20 29 34 30 23 18 16 24 36 40 46 57 57 52 50 45 36 29 27 25 21
32 32 42 50 51 53 53 49 46 44 42 41 42 39 33 36 43 44 43 41 39 39 40 43 43 39 32 27 27 33 37 40 42 44 43 39 36 31 25 19 17 20 29 36 37 32 24 17 18 27 35 40 51 58 53 47 44 37 31 27 23 19 17
28 30 37 42 45 50 52 49 45 44 47 44 42 41 37 38 41 40 39 39 41 43 46 48 46 39 32 27 27 31 35 36 38 41 43 43 43 40 33 27 25 29 37 41 40 33 22 16 22 30 36 45 53 53 48 42 37 32 28 22 17 15 15
22 21 32 43 48 50 49 48 45 45 49 49 44 41 41 40 40 41 42 43 45 48 50 50 46 38 30 27 26 28 29 30 31 33 37 39 41 41 38 35 35 38 41 42 39 31 19 17 26 33 41 50 51 47 42 36 32 28 23 18 16 17 20
22 18 34 52 57 56 52 47 47 48 50 52 46 43 45 44 42 45 49 53 54 52 53 52 44 35 30 28 27 25 24 24 23 24 27 30 34 38 41 41 41 42 43 40 36 26 17 20 30 37 46 52 49 42 38 32 27 24 21 19 21 23 28
41 27 32 47 54 60 60 52 50 51 51 54 52 49 48 46 47 54 59 63 61 56 55 51 41 35 33 30 28 26 23 20 17 16 17 20 25 31 36 39 41 44 43 40 32 20 16 25 35 41 50 54 48 41 36 29 25 24 23 25 26 30 35
57 43 41 48 50 56 64 64 62 60 58 62 63 58 54 51 55 62 66 66 63 59 56 47 39 37 35 32 31 29 25 19 14 12 11 13 16 22 28 32 39 46 47 39 25 15 19 32 40 45 53 54 47 39 32 27 25 26 28 30 32 37 42
60 56 56 57 53 55 63 67 72 74 72 73 71 62 56 56 57 59 61 63 61 60 54 44 40 40 38 37 36 32 27 20 13 10 10 11 14 18 26 33 42 50 46 32 18 14 24 35 42 50 54 50 41 34 29 26 27 30 33 36 41 45 46
62 61 62 63 63 65 64 59 63 71 72 69 67 63 59 58 58 56 56 59 59 58 51 43 42 44 43 44 42 39 34 23 14 11 11 14 20 27 33 38 45 46 36 23 15 17 29 40 47 52 50 42 34 29 28 29 31 35 39 44 48 50 48
61 62 62 61 63 68 67 59 55 58 62 61 61 65 66 62 60 57 56 57 58 58 51 44 46 48 48 49 46 44 43 33 19 14 15 17 23 32 37 36 36 33 25 19 17 22 35 47 52 49 42 35 30 29 30 32 36 42 47 50 52 51 51
57 57 57 56 58 65 69 66 58 53 57 63 66 70 70 65 60 56 55 56 58 59 54 48 48 50 50 51 49 45 46 43 29 19 19 21 21 25 27 26 24 22 20 19 19 27 43 54 54 46 38 33 31 32 34 39 45 50 52 52 51 51 52
52 51 52 54 57 65 73 74 65 53 52 61 71 77 74 67 61 58 58 61 62 63 62 57 54 52 50 52 50 44 45 48 39 26 22 23 23 21 17 16 17 17 19 20 19 31 51 60 53 43 36 34 34 37 42 48 53 54 53 52 50 50 52
46 43 47 53 57 66 76 77 68 55 45 47 60 74 77 71 65 62 62 65 67 68 68 65 61 57 53 52 51 46 44 47 42 33 27 24 25 25 19 15 15 15 18 20 21 37 56 59 49 40 37 36 39 44 50 54 55 54 54 52 50 51 54
38 33 35 44 50 60 73 75 68 58 45 39 48 64 74 74 68 64 65 68 73 75 72 68 65 60 55 53 53 51 48 45 40 34 31 26 25 27 26 20 15 16 19 19 24 41 56 55 45 39 38 40 45 50 52 52 53 55 55 54 55 57 57
35 23 23 38 49 57 66 69 67 65 56 46 46 56 68 73 70 67 66 68 72 76 75 72 69 64 59 55 54 53 52 49 41 34 32 31 27 26 28 26 20 17 19 19 25 41 54 51 42 37 40 46 49 50 51 50 53 57 57 58 63 65 61
40 24 20 36 49 53 55 59 63 65 61 54 52 52 55 60 63 65 66 68 71 75 77 74 71 69 65 62 59 57 55 53 49 41 34 32 30 26 26 29 25 20 20 19 24 39 50 47 39 38 44 50 51 50 51 52 52 55 58 63 68 69 64
44 34 28 36 47 53 55 58 61 62 60 58 58 55 50 48 52 57 63 67 72 76 78 75 72 70 69 68 65 62 60 58 55 49 41 35 32 28 26 28 27 23 21 20 24 35 44 42 37 39 47 53 53 54 54 52 51 54 61 68 71 69 66
42 43 40 39 43 50 56 61 65 67 67 65 63 61 60 57 53 57 66 73 75 76 77 75 73 72 70 69 67 64 62 62 60 55 48 40 35 31 27 26 26 25 23 22 24 29 35 37 35 39 50 56 56 58 56 51 51 58 66 72 74 70 67
32 39 44 42 35 34 42 53 61 63 64 66 66 64 63 62 59 63 71 76 73 71 72 72 73 73 70 68 68 64 60 61 63 58 50 44 39 34 29 26 26 26 25 24 23 24 30 33 33 40 52 57 58 59 55 51 55 65 73 77 77 72 68
27 34 41 43 37 32 34 40 45 49 53 59 63 63 60 60 62 66 71 69 64 64 68 70 70 71 71 69 68 64 57 54 57 56 50 46 43 39 33 28 26 26 25 24 22 23 26 28 33 44 55 60 62 61 55 54 61 71 78 81 80 76 71
26 34 40 42 39 40 43 42 40 45 50 53 55 56 59 61 61 65 70 68 64 66 69 70 69 70 72 70 68 67 61 52 48 49 49 49 48 45 39 32 27 26 25 24 22 22 23 26 38 52 59 61 64 62 57 58 65 74 81 84 83 80 75
25 30 39 43 40 38 43 46 44 44 46 47 46 48 54 59 59 63 68 67 66 70 71 69 68 68 71 71 70 71 70 61 53 50 51 51 51 51 45 37 31 28 26 23 23 24 28 36 49 57 60 61 63 62 60 61 68 76 82 84 83 80 77
28 29 34 43 46 41 39 40 42 41 39 37 39 44 49 53 55 59 60 60 63 67 67 65 65 66 70 73 73 73 75 72 65 61 58 56 56 57 53 43 35 32 27 25 30 35 41 51 58 60 60 61 62 63 63 65 72 78 80 82 81 78 78
28 32 35 43 51 51 47 43 40 41 41 39 43 50 52 52 56 58 56 56 59 59 57 58 61 64 69 74 75 75 75 72 68 67 65 62 61 61 59 51 42 35 30 31 40 49 53 57 61 62 62 61 64 68 69 70 75 77 77 79 77 74 74
22 28 34 41 49 52 52 50 43 39 41 42 45 49 48 48 52 54 54 58 59 52 49 53 57 61 69 75 76 74 71 70 71 70 67 67 68 66 64 61 53 42 36 41 51 58 60 62 64 63 61 61 66 71 72 73 75 75 76 77 72 68 67
18 20 23 30 39 47 50 50 46 42 40 38 39 42 43 43 46 47 48 50 46 41 48 58 61 63 70 76 77 74 72 74 76 73 68 67 71 72 70 68 61 50 43 48 58 62 63 66 67 65 63 64 67 71 73 74 75 76 76 75 70 64 64
18 17 18 19 25 35 41 43 44 44 43 39 36 37 38 39 42 44 45 42 37 37 49 59 62 63 66 69 71 75 80 84 82 77 72 68 70 74 74 71 68 61 51 50 58 64 65 66 67 67 67 66 66 69 73 74 76 77 76 74 71 67 69
23 21 20 19 19 24 29 33 35 38 39 37 33 30 29 28 30 32 33 35 35 36 40 47 54 59 59 57 58 63 72 81 79 73 71 71 71 73 74 71 69 66 57 52 57 64 66 65 65 67 67 65 64 66 71 72 73 76 78 76 72 71 75
29 26 24 23 23 24 26 28 30 31 31 30 27 26 26 26 27 26 26 30 34 36 39 44 51 57 57 57 57 55 57 64 66 62 62 65 70 74 74 73 69 63 57 54 56 60 63 63 64 66 67 66 63 59 60 63 64 68 70 69 68 74 74
32 30 29 29 29 28 27 27 27 27 27 27 27 29 32 35 35 34 34 36 38 40 43 48 53 58 59 59 59 57 55 56 58 57 54 55 63 70 73 73 70 64 61 59 57 59 61 60 60 62 64 66 64 57 55 62 68 68 64 60 64 72 66
35 33 33 33 33 31 29 27 27 27 29 30 32 34 37 40 41 41 42 42 42 41 42 44 46 50 52 51 52 55 58 57 56 55 52 50 55 61 66 72 73 68 65 64 62 63 64 62 61 63 64 66 64 58 59 70 79 76 64 55 58 61 56
42 38 36 35 35 34 31 28 27 28 27 29 32 34 36 39 41 43 44 45 44 42 40 39 39 40 42 44 46 50 54 55 55 56 54 52 52 51 53 61 69 70 68 68 67 65 65 65 65 65 65 66 65 62 65 75 84 81 64 50 50 52 55
46 44 42 40 39 35 31 28 29 28 26 26 28 30 31 32 32 35 38 39 40 40 39 39 41 41 40 41 43 44 45 47 50 55 57 56 55 54 54 56 60 66 70 70 68 67 66 66 66 64 62 64 65 63 61 63 71 78 70 56 49 51 61
49 49 48 47 45 39 32 28 29 29 29 27 28 31 32 33 33 31 30 30 33 36 39 40 41 42 42 42 42 43 43 44 47 51 54 56 57 60 63 60 57 60 67 70 70 69 67 67 69 68 66 66 66 64 58 52 59 73 74 61 50 52 69
49 51 52 53 50 44 37 32 29 30 31 30 30 31 33 36 39 36 30 29 30 32 34 37 38 39 40 40 42 44 45 46 47 47 48 51 55 59 65 67 63 62 66 69 66 62 60 63 65 67 71 72 70 67 61 54 60 73 71 56 48 58 77
44 45 47 49 50 48 44 36 29 29 32 31 30 30 30 32 36 36 34 32 31 29 30 31 30 29 29 30 33 37 39 42 45 47 47 49 52 55 58 62 63 65 69 74 69 62 64 69 64 62 70 75 71 67 62 59 68 77 66 47 47 66 84

ECMWFFLT1_500_rhum_024.txt.gz
RH
73 72 72 70 71 74 68 53 40 35 35 36 37 35 32 32 30 23 15 9 7 9 12 16 20 22 24 25 26 29 33 38 40 36 24 14 9 6 5 5 5 5 6 6 7 11 18 24 26 24 21 19 20 28 39 45 51 58 60 59 52 39 32
68 69 68 67 66 69 73 68 56 45 40 39 37 37 36 34 33 32 28 19 16 18 21 27 33 33 32 29 26 24 27 32 37 42 40 29 18 10 6 6 5 5 6 6 7 10 19 27 30 27 22 18 19 27 40 49 56 60 59 56 48 37 31
62 66 65 65 66 67 70 72 67 57 51 46 41 36 35 35 35 35 34 28 26 27 31 37 41 41 39 37 33 28 28 31 36 43 46 40 31 21 12 7 6 6 6 7 8 9 19 29 33 31 24 18 19 26 40 53 60 60 56 51 43 35 31
58 63 59 58 62 66 67 68 68 63 56 52 49 44 39 36 36 37 35 32 31 33 39 44 44 42 41 41 38 33 29 31 36 43 47 46 42 36 25 13 8 7 7 7 9 10 18 29 35 34 25 17 19 25 38 53 59 57 52 45 38 33 28
50 58 56 52 54 61 64 63 64 65 60 54 52 51 48 43 40 39 37 34 35 39 43 44 42 42 44 44 41 34 29 30 34 40 44 46 45 44 38 24 14 11 9 8 9 10 17 29 37 37 27 17 19 27 40 52 55 53 47 39 33 29 23
37 43 46 47 47 52 60 62 62 63 63 57 53 52 52 49 45 43 41 38 38 41 42 41 42 47 50 48 40 32 27 27 31 36 41 43 44 44 42 36 26 21 15 12 10 10 18 32 40 39 29 18 18 30 44 50 50 46 41 34 30 25 20
27 28 30 38 45 50 57 62 61 61 62 60 56 53 52 52 50 46 43 41 42 42 41 41 45 51 54 49 38 29 26 26 28 30 33 37 39 40 41 40 35 30 24 20 15 13 23 37 41 39 30 18 19 34 45 48 45 41 36 31 27 23 22
23 29 27 29 43 56 61 65 66 61 61 62 58 53 51 51 52 49 45 42 43 44 42 46 52 56 56 48 35 28 27 27 27 26 26 27 29 33 37 39 37 34 30 26 22 21 31 42 42 38 29 18 21 36 45 46 43 38 33 30 26 24 26
15 32 34 27 39 60 66 68 71 66 64 65 60 54 53 53 55 52 46 44 45 45 47 55 62 62 57 46 34 31 32 31 29 27 24 21 20 22 27 33 36 36 35 34 32 33 41 47 43 36 26 19 25 37 44 47 43 36 32 29 26 27 29
7 22 32 26 31 52 65 69 72 68 65 66 63 58 55 56 57 54 49 48 48 49 56 66 70 65 56 44 35 34 35 35 34 31 26 21 18 16 16 21 28 34 38 40 43 46 49 50 44 34 24 21 29 39 46 48 43 35 31 29 28 31 34
4 12 28 31 26 31 44 58 68 67 64 65 67 67 65 63 62 60 58 56 54 58 66 70 71 66 55 42 37 38 41 43 42 39 33 25 21 21 18 16 19 26 31 36 45 51 52 51 44 31 23 27 35 43 48 48 41 33 30 30 32 36 38
2 8 28 42 35 22 24 45 64 67 64 64 66 71 75 76 75 73 70 65 61 64 69 69 69 65 53 42 39 43 47 49 49 52 52 42 33 29 25 21 20 24 26 30 41 51 53 50 41 26 24 34 42 45 47 44 37 32 31 33 38 42 44
2 8 24 39 40 29 26 46 65 65 62 62 61 64 70 73 76 76 72 69 66 65 66 66 67 62 51 43 42 45 51 53 55 62 67 64 54 41 29 24 25 28 32 36 44 50 50 45 34 23 24 35 43 46 44 39 34 33 35 39 44 48 48
2 6 15 26 36 36 30 45 64 62 59 61 59 58 60 62 68 71 71 69 66 64 64 65 66 61 52 45 43 46 51 56 59 64 68 70 66 52 38 30 27 28 32 38 43 47 44 37 26 19 21 29 38 42 39 35 34 35 40 45 49 52 49
3 4 7 15 36 42 31 40 61 65 63 65 62 57 55 57 64 69 71 70 66 62 61 60 62 60 55 49 47 49 53 57 60 62 64 66 63 54 46 39 33 31 29 30 33 34 32 27 20 17 17 22 31 37 35 34 36 40 46 51 52 50 45
4 5 5 14 35 42 32 38 58 68 70 67 60 56 52 52 61 68 70 69 67 64 61 60 61 62 60 56 53 55 57 59 60 62 62 62 60 56 50 41 37 35 32 30 28 25 22 19 17 16 16 18 26 32 33 34 38 44 50 53 51 47 42
5 5 5 13 27 33 31 37 49 62 69 61 51 51 46 40 51 68 74 73 70 67 65 66 68 70 70 65 60 59 59 59 61 62 62 61 60 58 53 45 40 38 36 34 31 28 25 20 16 16 16 17 23 28 32 35 40 47 53 53 48 44 42
6 6 5 8 16 22 23 29 39 54 62 54 47 47 40 31 36 52 65 71 72 70 69 71 74 76 77 74 69 66 62 61 61 61 61 61 58 57 55 50 45 41 38 35 32 30 30 27 22 19 17 18 21 25 29 34 42 50 54 53 47 43 43
7 7 5 5 9 14 17 22 34 49 56 55 55 54 43 33 29 33 46 60 69 70 70 73 76 76 77 78 76 73 69 67 65 63 62 61 57 56 56 53 51 48 44 40 36 31 29 28 26 22 20 20 22 25 29 35 44 53 55 52 46 44 46
7 6 6 6 7 9 12 16 27 44 55 60 63 57 46 41 42 44 49 55 61 67 69 70 72 72 74 77 77 74 72 71 70 69 66 63 61 61 59 57 57 55 50 45 41 35 29 27 27 25 23 22 24 27 29 34 45 54 56 53 47 46 50
7 7 7 8 7 7 11 14 21 34 50 62 67 61 53 56 61 59 53 49 52 57 59 59 61 64 68 70 71 70 70 68 69 69 69 67 66 65 63 62 61 58 53 49 46 43 35 29 28 27 25 24 25 28 29 34 46 54 56 54 51 51 53
8 8 8 9 9 10 11 14 19 25 34 48 58 58 58 64 66 60 55 53 53 51 49 52 58 64 68 69 68 68 69 68 69 70 72 73 71 67 63 62 62 59 54 51 52 50 41 34 29 27 26 25 26 28 28 32 45 56 58 58 57 56 56
9 9 9 9 10 11 11 13 17 22 25 33 41 49 59 67 65 56 51 50 51 50 50 52 57 61 65 69 71 72 73 73 72 72 75 79 79 75 68 61 58 58 56 55 58 56 47 39 33 29 29 28 27 29 28 32 45 56 60 62 63 62 59
12 11 10 9 10 11 12 12 14 20 25 31 38 47 56 61 58 52 45 40 42 47 47 49 55 60 65 73 77 78 77 77 76 76 76 79 81 82 79 67 58 58 60 59 62 62 55 45 37 33 31 30 30 30 30 34 45 55 60 65 68 64 60
15 14 12 11 11 12 14 13 14 18 21 26 34 39 40 41 42 45 48 48 47 43 39 44 55 63 72 83 86 83 80 79 78 78 76 76 77 82 84 76 63 60 64 64 66 68 62 51 43 38 33 31 32 32 32 33 42 53 61 67 69 65 62
18 16 15 14 13 14 19 20 17 17 17 18 23 26 26 27 28 32 41 48 47 39 35 42 53 60 70 81 83 78 76 74 74 76 76 75 77 81 84 80 69 63 65 67 68 70 66 58 52 45 37 34 31 31 31 31 40 55 65 69 71 68 65
20 19 17 16 14 16 25 32 28 21 18 19 21 24 27 27 27 29 34 37 36 37 41 49 56 57 60 65 66 64 65 67 70 75 77 77 79 80 82 80 72 65 66 69 71 72 69 64 58 51 44 38 32 31 34 35 43 59 68 69 71 69 67
22 21 19 18 16 14 20 32 34 28 24 24 26 32 36 36 36 38 38 34 32 37 46 53 58 57 55 57 59 58 57 60 63 67 71 76 77 76 77 79 74 66 65 67 70 73 72 68 64 59 53 45 37 36 40 43 50 61 68 70 71 70 69
26 24 22 19 18 16 15 22 28 29 28 27 27 30 34 37 40 42 39 37 39 45 49 51 51 49 48 50 55 55 52 52 52 51 54 60 62 60 62 71 75 72 68 68 70 73 75 74 72 68 61 52 45 43 46 49 54 63 68 69 69 69 71
30 27 24 21 18 17 16 17 23 28 29 29 28 28 30 34 38 39 38 40 44 47 47 45 44 43 42 42 44 44 43 42 40 38 38 42 44 44 46 53 61 65 67 70 73 76 77 76 76 75 70 61 53 50 50 51 57 67 70 70 69 68 70
36 30 27 25 21 18 16 16 19 24 28 31 31 31 31 32 34 37 40 41 43 43 44 45 44 41 37 35 35 38 41 43 45 45 45 46 45 46 49 54 56 56 56 58 65 72 73 71 71 72 70 63 55 51 53 55 61 70 72 71 71 68 67
41 36 32 29 25 22 20 17 16 19 23 27 29 30 30 29 29 33 37 38 38 39 39 38 36 32 29 32 42 50 52 53 54 54 56 58 57 55 60 65 63 59 57 58 64 72 73 70 68 69 68 64 58 54 56 59 63 67 70 72 72 69 68
47 42 38 35 32 27 24 20 18 19 20 22 23 24 23 23 23 26 29 31 31 31 29 28 28 29 30 37 47 51 49 47 47 48 51 57 60 62 67 69 67 66 67 67 66 67 66 64 65 65 66 69 67 59 55 57 60 63 67 69 69 68 69
52 48 44 40 36 33 29 26 24 24 24 24 24 23 23 25 26 27 28 29 29 29 28 28 29 32 35 39 43 44 43 43 44 43 44 47 49 51 55 60 61 61 62 62 62 62 62 67 73 70 66 70 72 65 56 53 54 57 61 64 64 66 67
55 53 49 44 39 36 34 31 29 27 28 28 27 28 29 31 31 31 31 33 34 34 34 34 35 36 37 39 40 42 44 47 47 47 47 47 47 45 43 45 48 46 44 47 51 53 56 65 75 77 74 75 77 74 67 62 59 60 64 66 64 62 61
57 54 51 47 43 39 37 34 31 28 28 28 28 30 31 32 33 33 32 33 34 35 35 36 36 37 37 38 40 42 43 44 45 45 45 45 45 43 40 40 42 42 43 46 47 47 48 52 59 67 72 77 80 79 78 78 76 73 70 68 69 70 69
58 53 48 47 47 45 41 37 34 31 30 30 31 31 32 33 34 33 33 33 34 34 34 34 33 33 32 32 32 33 33 33 34 35 36 36 37 38 38 39 40 42 45 48 48 48 48 48 51 57 62 69 77 80 77 76 77 77 71 65 67 75 79
57 52 50 50 51 50 46 42 39 36 33 33 33 33 32 33 33 34 34 35 35 35 35 34 33 32 31 30 29 28 27 26 25 25 27 29 31 35 38 40 41 43 44 47 48 49 48 47 50 53 57 64 72 75 70 66 69 74 76 75 74 76 77

ECMWFFLT1_500_rhum_030.txt.gz
RH
50 36 37 39 32 23 17 13 9 6 5 3 2 2 2 3 3 3 3 2 3 3 3 3 3 3 3 3 3 3 3 3 3 3 3 3 4 4 4 5 5 5 5 5 5 6 7 8 8 9 9 13 21 27 29 26 19 13 16 25 35 42 42
47 39 39 39 31 21 18 18 12 6 4 3 2 2 2 4 4 3 3 3 3 3 3 3 3 3 3 3 3 4 6 7 8 9 9 8 7 6 7 7 7 6 5 5 5 5 6 6 8 9 9 11 18 26 31 30 24 16 14 22 32 40 42
50 47 46 41 33 24 20 20 16 10 5 3 3 4 6 7 7 5 4 3 3 2 3 3 3 4 4 5 7 9 14 18 22 25 25 25 23 20 19 17 16 13 9 6 5 6 6 6 7 8 9 10 15 24 30 32 29 21 14 18 29 39 42
55 54 54 51 45 35 23 17 14 11 9 6 5 9 14 14 13 10 6 4 3 2 3 3 3 3 5 9 15 20 26 31 34 36 36 37 36 36 35 32 29 26 21 15 11 8 7 6 7 7 9 10 12 20 28 32 33 27 18 16 25 37 41
60 60 59 58 55 45 31 22 15 11 10 10 11 15 20 18 13 11 9 7 6 4 3 2 3 4 6 11 17 22 26 29 31 32 32 33 33 35 38 40 40 38 34 30 24 17 12 9 8 7 8 9 11 15 23 31 34 32 23 15 20 32 39
63 63 61 63 64 56 46 41 36 30 26 21 19 20 24 24 19 14 13 14 15 15 13 10 7 7 8 12 16 23 29 31 33 34 34 34 33 33 35 38 40 41 41 40 35 29 23 16 11 7 7 9 10 12 17 27 34 35 28 17 17 29 38
66 66 65 68 69 63 60 60 61 60 55 47 38 30 26 25 26 24 21 21 24 26 26 25 22 18 15 15 19 29 38 41 41 42 41 41 40 38 37 36 37 40 42 42 42 38 33 27 19 12 9 8 9 10 12 21 31 36 33 22 16 26 37
69 69 70 71 70 69 69 71 74 75 73 67 59 49 36 26 25 27 27 27 28 28 30 32 33 31 28 24 25 34 43 45 44 44 45 45 43 39 36 35 35 38 39 41 44 43 40 37 30 22 15 11 10 11 11 16 27 36 36 27 17 23 35
69 67 68 70 72 72 72 73 76 77 74 71 67 61 52 36 25 24 25 27 27 25 27 32 35 37 37 33 31 38 46 46 45 46 48 49 44 36 32 31 32 35 37 40 43 44 44 42 39 33 27 20 18 17 15 16 23 34 39 31 19 21 34
64 60 61 66 70 72 72 72 73 70 67 67 66 64 60 49 38 34 33 31 29 27 29 32 35 38 40 38 37 41 46 46 45 48 52 50 41 32 29 27 28 30 32 34 36 38 39 40 39 38 36 32 29 27 24 22 24 32 40 36 23 19 31
49 46 49 57 65 69 70 70 68 66 63 63 65 66 65 58 50 49 48 46 43 41 40 40 39 40 41 41 40 42 45 46 46 50 54 49 38 31 29 28 27 26 24 24 23 23 23 23 24 25 26 29 31 32 30 28 28 32 39 39 27 18 27
33 33 34 41 51 60 66 67 65 63 62 61 62 65 68 62 53 49 50 50 49 48 48 47 43 43 44 44 42 42 45 46 48 56 59 49 37 33 32 31 28 24 20 17 15 14 13 13 13 14 16 19 22 25 28 28 28 31 36 38 29 18 22
24 28 28 30 34 43 52 58 61 60 59 58 58 61 66 63 55 49 46 45 46 47 48 48 45 44 45 45 43 43 46 48 53 63 62 48 38 38 39 37 33 28 24 20 18 18 19 19 18 18 19 19 19 20 21 22 22 26 31 35 29 18 19
14 20 25 27 27 30 37 45 51 53 53 53 52 57 64 63 56 50 45 42 42 42 44 46 45 44 46 47 45 44 47 51 58 68 65 48 39 42 44 42 37 32 29 26 25 27 27 26 25 24 22 22 22 22 22 21 22 25 31 33 27 18 18
6 10 15 19 20 19 24 30 35 37 39 43 47 54 62 63 57 52 47 40 33 34 41 45 44 45 47 48 47 47 51 56 63 70 66 49 41 45 47 43 38 32 29 30 33 36 36 36 34 31 27 25 24 24 23 22 21 23 29 30 24 18 18
3 4 5 8 9 10 12 15 17 21 26 36 46 55 63 66 60 55 50 41 33 35 44 48 47 47 48 49 51 53 57 61 65 70 65 50 43 47 47 42 37 34 33 36 43 45 46 48 45 41 36 30 26 24 23 22 22 22 24 25 20 17 17
3 3 3 3 4 4 5 5 6 10 15 26 37 46 57 64 58 48 41 36 37 45 53 56 55 52 51 54 60 61 62 64 66 67 63 50 44 48 48 43 41 41 41 43 47 50 52 55 53 50 47 39 31 26 23 22 24 24 25 23 19 16 16
4 3 3 3 3 3 3 3 3 4 8 14 18 25 37 46 47 45 39 33 36 43 52 60 63 61 60 64 66 63 62 66 66 65 60 50 45 48 49 46 46 49 52 51 52 54 56 56 56 55 54 48 39 32 27 24 25 25 26 25 21 19 17
4 4 3 3 3 3 3 3 3 3 4 6 8 13 20 22 30 45 50 43 37 35 40 52 60 63 65 64 62 59 60 62 63 62 58 50 46 48 50 50 51 54 58 59 60 61 60 59 58 57 57 56 48 38 31 28 26 25 25 25 24 22 20
5 5 5 5 5 5 4 4 3 3 3 4 5 10 14 14 23 40 50 49 44 36 37 44 50 56 60 58 55 54 54 55 56 56 53 49 48 50 51 53 55 56 59 60 61 63 63 63 62 58 57 59 57 49 38 31 30 28 26 25 25 23 22
6 6 6 6 6 7 6 5 5 4 3 4 5 7 12 21 32 40 45 51 53 47 42 41 40 41 44 45 47 50 52 54 54 53 52 52 53 54 55 57 57 57 58 58 59 63 65 67 67 63 59 58 60 60 50 37 32 32 31 30 28 25 22
8 8 7 8 8 8 7 7 6 6 5 4 4 5 10 20 30 37 44 52 57 56 51 45 39 33 29 29 33 40 47 53 55 54 53 55 58 60 59 59 59 58 58 59 61 64 65 65 65 63 61 61 62 63 59 48 38 35 38 40 38 29 22
10 9 9 9 9 9 9 8 8 8 7 6 5 5 7 12 18 29 42 51 54 56 55 53 49 44 38 31 27 33 45 52 55 55 56 58 62 64 64 64 62 61 60 61 64 67 67 67 67 65 63 62 61 60 60 55 47 41 44 51 50 39 27
11 11 10 10 10 9 9 10 9 9 8 7 6 6 6 8 9 17 34 47 52 54 57 58 58 56 50 41 34 40 51 57 60 61 61 61 61 61 63 65 65 65 64 63 65 66 67 68 69 68 66 64 63 62 62 61 55 47 46 52 57 51 39
12 12 12 11 11 10 10 11 10 10 10 8 7 6 6 8 7 9 23 39 47 50 55 60 62 59 51 43 41 46 50 53 59 64 63 63 63 63 64 66 67 69 69 68 67 68 70 69 66 66 67 67 68 70 71 71 68 60 50 48 54 58 51
15 14 14 13 13 12 11 12 11 12 11 10 9 8 6 7 7 7 15 29 39 44 51 59 61 55 46 42 45 49 49 49 53 57 59 62 65 67 69 68 69 71 71 70 69 68 69 68 67 67 67 64 63 65 71 75 76 71 63 54 52 56 57
17 16 16 15 15 14 13 13 12 12 13 12 11 10 8 7 7 7 10 20 33 43 49 54 56 52 45 44 47 49 50 48 48 51 57 64 67 68 68 65 65 68 72 71 70 70 72 71 68 65 60 55 51 52 58 64 65 63 65 64 59 57 59
19 19 18 17 16 16 14 14 14 13 14 13 12 11 10 8 7 8 8 12 25 38 44 48 53 53 49 48 49 49 48 46 45 47 52 58 62 64 62 56 54 57 63 61 57 58 62 61 56 50 46 43 40 36 37 43 45 44 50 62 66 63 62
23 21 20 19 18 18 16 16 15 14 14 15 14 13 12 9 8 8 8 9 16 26 36 48 59 62 58 54 53 53 54 54 52 53 55 56 58 57 54 50 46 45 47 46 40 37 38 39 37 35 35 34 33 31 30 32 34 34 39 54 67 67 64
26 24 23 21 20 19 19 18 17 16 16 16 16 15 13 12 10 9 9 11 13 18 27 42 56 64 65 62 57 53 52 50 49 53 59 63 62 57 51 47 44 41 39 39 37 33 31 30 30 30 31 30 30 32 32 29 30 34 39 51 65 70 67
25 25 25 24 22 21 21 20 19 18 17 17 17 17 16 14 13 11 10 11 13 15 21 31 42 52 57 59 57 55 53 50 47 45 47 51 52 50 47 45 43 41 40 38 38 37 35 35 35 33 33 33 32 33 36 36 38 42 45 52 59 63 66
23 25 25 25 24 23 22 22 22 21 20 19 18 17 17 16 15 14 13 13 13 13 15 20 28 36 41 45 47 49 49 48 45 41 38 40 42 43 43 42 40 40 40 39 40 40 39 40 39 34 33 36 39 42 47 51 53 53 53 55 57 59 63
21 23 24 25 25 24 23 23 23 23 23 22 20 19 18 18 18 17 17 16 15 15 14 16 18 21 25 28 31 32 33 33 33 33 32 33 36 38 38 38 39 41 39 37 39 41 41 42 42 41 41 45 51 55 57 60 63 60 53 49 52 57 62
23 22 23 25 26 26 25 24 24 24 24 24 23 22 20 20 19 19 19 19 18 18 18 17 18 18 19 21 22 23 25 26 27 28 29 29 31 33 34 34 38 40 36 34 36 38 37 39 42 45 50 54 59 64 65 60 57 54 46 40 42 48 52
25 24 23 24 25 26 27 26 25 25 25 25 24 24 23 22 22 21 22 21 20 20 20 19 19 21 22 22 22 21 22 23 24 25 27 28 29 31 32 32 33 33 30 29 32 33 33 33 34 37 42 45 48 55 60 55 50 49 49 45 41 39 38
29 27 24 24 25 25 26 26 26 26 25 25 24 24 23 23 24 24 23 24 23 23 22 22 21 21 22 21 21 21 21 22 22 22 23 26 27 29 30 30 30 29 28 28 31 31 31 32 31 31 34 34 34 37 42 44 43 44 47 46 39 32 31
30 29 28 26 26 26 25 25 26 26 27 26 25 25 25 25 25 25 25 25 26 26 25 24 23 22 22 22 22 22 22 22 22 22 22 24 26 27 28 28 29 31 31 32 33 33 32 31 31 31 32 32 33 34 34 34 35 37 40 39 35 31 32
30 30 30 30 30 29 28 28 28 27 28 29 28 28 29 29 28 29 27 26 26 26 26 26 26 25 26 26 26 25 25 24 25 26 27 27 28 29 31 32 34 35 36 35 35 35 35 35 34 34 35 36 37 38 36 34 34 35 35 34 32 32 34

ECMWFFLT1_500_rhum_033.txt.gz
RH
56 50 40 30 20 12 8 6 6 6 5 5 5 5 4 3 3 3 3 3 3 3 4 4 4 4 4 4 4 4 3 4 4 4 4 4 4 4 4 4 5 5 5 5 6 7 7 7 8 8 9 9 11 15 22 26 26 22 14 10 14 22 32
58 49 40 35 26 15 9 7 6 6 5 4 4 4 4 3 3 3 3 3 4 4 4 4 4 4 4 3 3 3 3 3 4 4 4 4 4 4 4 4 5 5 5 5 5 5 5 6 7 7 8 9 10 12 18 24 27 27 22 14 11 16 27
63 56 42 37 34 23 13 9 7 6 5 4 4 3 3 3 3 3 3 3 3 4 3 4 4 3 3 3 2 3 3 3 3 3 3 3 4 4 4 4 4 4 4 4 5 6 6 7 6 7 7 8 10 10 14 20 26 29 28 22 14 12 19
62 62 50 41 40 33 21 12 9 8 6 5 5 4 3 3 3 3 3 3 3 3 3 3 3 3 3 2 2 3 3 3 3 3 3 3 4 6 7 8 9 9 9 8 7 7 7 8 8 8 7 7 9 10 12 16 22 27 30 29 22 14 14
56 61 62 52 44 36 22 12 10 9 7 5 5 4 2 2 3 3 3 3 3 3 3 3 3 3 3 3 3 4 4 5 6 7 10 12 16 20 23 25 26 26 25 24 22 18 14 12 11 11 9 7 8 11 11 12 17 22 27 31 30 23 15
56 58 63 56 53 45 27 18 16 12 10 9 5 4 4 2 2 3 3 3 3 3 3 3 2 2 3 3 4 5 5 7 11 16 21 25 28 31 32 32 32 32 32 31 31 31 30 26 21 16 14 12 11 12 13 12 13 17 22 28 32 31 22
61 61 63 59 60 54 36 31 29 20 16 14 9 7 5 4 5 5 5 4 3 3 2 3 3 3 3 4 4 4 5 9 15 20 24 27 29 31 32 32 32 31 30 30 29 30 32 34 33 29 24 20 17 16 15 14 12 14 18 24 30 33 29
63 64 67 63 62 56 46 45 44 35 26 18 16 17 12 10 12 12 12 10 7 6 4 3 3 3 3 3 3 4 6 9 13 18 24 29 34 35 36 37 38 38 36 34 32 30 30 33 37 38 35 31 27 25 22 19 16 15 16 20 26 32 33
61 59 62 64 61 57 54 53 50 45 37 30 31 33 26 20 18 18 20 17 12 10 10 10 8 7 8 10 10 11 11 12 14 19 27 35 39 39 40 43 44 43 40 35 31 30 30 32 35 39 41 40 37 35 32 29 26 23 21 20 22 27 32
61 58 61 66 61 56 59 60 54 49 49 47 45 42 34 28 23 20 20 21 21 18 17 17 18 20 23 24 26 26 23 22 21 23 31 38 41 41 44 46 47 45 38 31 27 25 26 30 33 37 40 42 42 40 39 37 35 33 30 25 23 26 30
53 49 55 64 62 56 60 62 57 55 56 55 50 40 31 27 26 23 20 21 26 27 25 22 21 24 29 30 31 32 32 31 29 29 35 41 43 43 45 48 49 45 36 28 25 24 23 25 27 29 32 33 35 34 34 35 35 34 33 30 26 26 28
37 39 50 62 63 60 62 63 63 64 62 61 58 48 35 28 27 28 26 25 26 28 30 30 24 21 24 27 30 33 36 38 36 35 39 43 44 45 48 52 52 45 35 28 25 23 21 20 18 18 18 18 18 18 20 22 23 25 28 30 29 29 30
29 37 48 58 62 63 65 67 68 69 68 67 66 59 51 43 39 37 36 34 32 30 32 35 32 25 23 24 27 32 38 42 41 40 41 44 45 47 53 57 54 45 35 30 27 23 19 17 15 14 14 14 14 14 15 15 15 16 19 23 25 28 29
34 40 46 54 62 63 64 67 69 71 72 72 68 62 59 56 52 49 46 44 43 41 40 42 42 40 38 35 34 35 40 44 44 43 43 44 46 50 57 60 54 44 36 33 29 24 19 18 17 17 17 17 17 17 17 17 16 17 19 22 24 26 29
39 46 50 56 61 62 62 63 66 69 71 71 68 64 63 61 58 55 53 50 49 49 48 46 45 45 46 46 44 43 44 46 47 45 44 45 47 52 61 63 54 44 39 37 32 26 22 21 20 20 20 21 21 19 18 17 17 19 20 23 25 26 29
39 52 60 62 62 63 60 55 55 59 62 62 61 60 62 63 60 57 56 53 51 53 50 44 41 40 42 47 50 48 47 48 49 48 46 46 49 56 63 63 55 46 42 40 35 28 25 23 22 24 26 27 26 23 20 18 18 20 20 21 21 19 18
27 41 50 51 53 55 51 46 45 48 50 51 50 52 56 60 59 56 55 53 54 56 51 44 41 36 36 46 53 51 48 48 49 49 48 48 51 58 65 64 56 48 45 42 36 29 26 24 26 30 35 37 36 34 30 25 22 21 21 20 20 18 16
10 16 21 23 26 30 31 33 35 37 39 40 38 39 43 48 51 51 50 50 51 50 46 43 39 28 24 38 52 53 51 50 51 50 49 51 55 60 66 67 58 49 46 45 38 31 28 29 32 38 43 45 46 46 44 39 32 26 24 22 21 20 18
4 4 6 7 9 10 13 17 20 21 24 26 26 27 27 30 37 41 40 39 41 42 43 42 34 20 17 31 48 56 56 53 52 52 51 55 59 60 64 67 59 50 48 47 42 37 36 38 41 44 48 50 52 54 54 52 45 36 30 27 25 24 21
3 3 3 3 4 4 4 6 6 7 9 10 13 17 17 19 24 27 25 25 31 40 43 36 26 17 16 27 42 56 63 61 57 57 57 59 60 59 63 67 61 51 47 48 47 45 45 47 49 51 53 54 55 56 57 57 54 48 40 33 30 29 27
3 4 4 3 3 3 3 3 3 3 4 3 4 7 9 12 14 15 15 16 22 33 35 28 24 23 22 25 33 46 61 68 66 64 62 61 60 60 62 66 61 51 47 49 50 51 52 54 56 58 59 60 60 61 60 58 58 57 53 45 37 33 31
6 5 5 5 5 4 4 3 3 3 2 3 3 3 5 7 7 9 11 11 15 22 23 23 33 41 38 35 34 37 52 67 70 66 62 58 56 56 56 58 56 50 48 50 52 54 55 56 58 59 61 64 65 66 65 62 58 58 59 55 47 42 38
7 6 6 6 6 5 5 4 4 4 3 3 4 3 3 4 5 6 7 8 11 14 15 24 43 55 51 45 40 35 39 49 54 53 51 49 49 51 52 53 53 51 51 53 54 56 56 56 57 57 59 63 65 66 65 63 61 59 59 59 58 57 56
7 7 7 7 6 5 5 5 5 5 5 5 5 5 4 4 4 5 5 7 11 12 16 31 49 56 52 47 45 41 39 39 39 37 35 38 44 49 52 53 54 55 56 57 57 57 56 56 56 57 59 61 64 66 66 65 65 64 63 64 66 67 68
8 8 7 8 8 7 6 6 6 6 7 7 6 6 6 5 5 6 7 9 11 15 24 38 48 54 52 48 48 50 49 47 43 36 30 34 44 51 54 55 56 58 60 61 61 59 58 58 58 58 59 60 62 65 67 68 69 69 67 67 67 68 71
9 9 9 8 9 8 8 8 8 7 8 8 7 7 7 6 7 7 8 10 11 15 28 39 45 51 52 48 49 54 54 50 45 37 33 39 46 50 51 53 54 57 60 62 63 62 61 61 61 61 62 62 63 65 67 68 68 68 69 69 67 66 66
10 10 10 9 9 10 10 10 10 9 9 9 8 8 7 7 8 7 8 10 9 12 21 28 35 43 47 46 49 53 53 50 46 44 46 51 52 50 49 50 52 56 60 63 65 65 64 64 63 62 61 61 61 62 64 68 70 71 71 69 63 56 50
12 11 11 10 10 10 10 11 11 11 11 10 9 9 9 8 8 8 8 8 8 10 12 13 20 33 41 43 46 49 51 50 48 49 53 55 54 51 49 49 51 54 60 65 67 66 66 63 58 53 51 50 48 47 47 51 58 60 56 52 48 42 37
16 14 13 12 12 12 12 12 13 12 12 12 11 10 10 9 10 10 9 8 8 8 9 8 12 23 33 38 41 45 49 50 50 51 53 54 54 53 52 52 52 54 58 62 63 64 62 58 52 48 46 43 39 37 36 35 37 38 38 37 37 37 35
21 19 17 15 14 14 13 13 14 14 14 14 13 12 11 11 12 12 11 10 9 8 8 8 9 14 23 30 33 38 44 46 47 51 54 56 57 57 58 58 57 55 57 58 61 64 64 60 56 52 48 42 38 36 36 35 34 34 34 34 35 36 38
24 22 21 19 17 17 16 15 16 15 16 16 15 14 14 12 12 13 13 13 11 9 9 8 8 10 16 22 27 33 39 44 50 56 60 60 59 60 61 60 57 55 55 55 57 61 65 66 63 56 48 43 39 37 37 36 35 33 32 32 34 35 36
26 25 24 22 21 19 18 17 17 17 17 17 16 16 16 15 14 14 14 14 14 12 10 9 9 10 12 15 20 27 36 48 59 68 72 71 70 69 66 62 59 58 57 54 51 53 58 62 61 54 47 42 39 38 38 36 33 31 30 31 34 36 37
26 26 25 25 25 23 21 20 20 19 19 18 18 17 17 17 16 16 15 15 15 15 13 11 10 10 11 13 16 22 32 43 55 66 73 75 74 70 63 58 58 59 58 56 53 53 55 56 53 49 43 38 37 38 38 34 30 31 32 33 34 38 39
24 25 25 26 27 26 25 23 22 21 21 20 19 19 19 19 18 17 17 17 16 16 16 14 11 11 11 13 15 20 29 38 47 55 62 64 65 62 58 58 60 60 59 57 55 54 51 46 41 38 35 33 34 35 34 32 33 35 37 38 35 35 34
24 23 23 24 26 27 27 26 24 23 23 22 22 21 20 20 20 19 19 19 18 18 17 16 14 13 12 13 14 17 22 29 35 40 44 47 48 48 48 50 51 50 49 47 44 41 38 34 32 31 31 30 32 32 30 31 34 36 37 37 37 35 34
24 23 22 22 23 24 25 26 25 24 24 23 23 23 22 22 22 22 22 21 20 20 19 18 17 16 15 15 15 15 17 19 21 24 26 29 31 33 35 36 36 35 35 33 31 30 30 30 29 31 33 33 32 31 30 31 35 37 38 38 39 40 40
25 24 23 22 22 22 24 24 25 25 25 25 24 24 24 24 24 24 24 23 22 22 21 20 19 19 18 19 18 18 19 19 19 19 20 22 24 25 27 28 28 28 27 27 27 27 27 27 28 31 38 43 41 35 31 31 35 39 39 38 38 39 40
26 25 24 23 22 21 22 23 24 24 25 25 25 24 25 25 26 26 25 24 24 24 23 22 22 21 21 21 21 22 22 22 22 22 23 26 26 26 26 26 26 25 26 27 27 26 26 26 27 28 34 41 42 38 35 36 39 39 36 34 33 35 38

ECMWFFLT1_500_rhum_036.txt.gz
RH
63 58 46 50 56 56 44 25 23 26 15 7 6 5 5 4 4 5 5 6 6 5 6 5 3 3 2 2 2 2 2 3 3 3 3 3 3 3 3 3 4 5 6 8 9 9 9 9 9 10 10 11 12 13 14 16 19 22 24 21 16 11 11
61 68 52 46 53 55 50 34 20 16 10 7 6 5 5 5 4 4 3 4 4 4 4 4 3 2 3 3 2 3 3 3 3 3 3 3 3 3 3 4 4 5 6 7 7 7 8 8 8 9 9 10 11 13 14 15 17 20 24 26 25 19 12
41 65 53 42 51 51 48 41 24 14 12 8 5 6 6 5 5 4 3 3 3 2 3 3 3 2 3 3 2 3 3 3 4 4 3 3 3 3 3 4 5 5 6 6 7 7 7 7 7 8 8 9 10 12 13 14 16 19 22 25 28 27 21
30 62 54 42 52 53 48 44 31 20 18 13 8 7 5 5 6 3 3 3 2 2 2 2 3 3 3 3 3 3 3 3 3 3 3 3 3 4 4 4 4 4 5 5 7 7 7 8 9 9 9 8 9 11 12 15 16 18 20 23 26 29 28
29 60 63 51 54 59 52 42 31 17 12 14 11 8 5 4 5 4 3 3 2 3 3 2 3 3 3 3 3 3 3 3 3 3 3 3 3 4 3 3 5 7 10 13 16 18 19 20 20 19 16 13 11 10 11 13 16 17 19 21 24 26 29
28 48 59 54 53 62 57 43 33 18 8 13 16 11 8 4 3 4 3 2 3 3 3 3 3 3 3 3 3 3 3 2 3 3 3 3 4 5 6 10 15 19 24 26 27 29 29 30 30 30 29 26 23 18 14 13 14 17 19 20 22 24 26
31 40 55 57 52 61 63 51 44 30 14 14 19 15 8 5 4 3 3 3 2 3 3 3 3 3 3 3 3 3 2 2 3 4 5 7 9 13 17 21 24 26 28 29 30 30 30 30 30 30 31 32 32 30 26 21 18 18 18 19 21 22 24
26 32 50 56 49 56 66 60 52 42 27 19 19 16 9 6 6 3 3 3 2 3 3 2 3 3 2 3 2 2 3 3 4 5 7 9 12 16 20 23 26 30 32 34 35 36 35 34 32 30 30 30 31 34 34 32 28 25 23 22 23 24 25
28 24 33 44 46 53 64 63 51 42 37 27 17 13 11 10 8 5 5 3 2 3 3 2 3 3 3 3 2 3 4 4 4 4 5 7 10 14 19 26 32 36 38 40 42 41 39 35 31 29 29 29 31 33 36 38 37 36 33 31 31 30 30
43 24 19 32 47 55 65 67 52 39 40 34 15 7 14 17 13 10 8 4 2 4 5 5 4 3 3 3 3 3 4 4 4 5 8 10 13 16 22 30 36 38 39 43 46 45 39 31 26 24 25 27 30 32 35 37 38 39 38 38 37 35 34
59 35 20 29 48 60 67 69 56 47 51 44 19 6 12 17 15 14 12 8 6 6 7 6 4 4 5 4 5 5 5 8 13 18 21 22 22 23 25 31 37 37 39 43 47 45 37 29 25 23 22 23 24 26 29 31 32 34 35 35 36 35 34
58 47 29 28 44 58 63 66 64 62 62 52 29 15 14 15 15 15 14 13 13 12 12 9 6 6 7 7 8 9 10 16 23 28 31 32 32 31 29 32 37 37 40 46 50 46 36 29 25 23 21 19 18 17 18 19 20 20 20 20 22 25 27
40 42 33 29 40 49 52 60 70 69 64 55 43 37 33 30 28 22 17 16 16 17 19 18 13 9 9 10 11 13 17 21 25 28 33 38 39 37 35 35 36 38 43 49 51 44 35 29 27 24 21 17 15 13 12 12 11 11 11 11 12 14 16
35 37 34 31 37 43 47 58 68 67 62 56 52 52 52 51 51 43 34 26 21 20 21 22 21 17 13 12 11 12 16 19 20 23 31 40 42 40 39 37 37 40 45 51 51 44 36 32 29 25 21 18 16 15 13 13 12 12 12 12 11 12 13
34 33 34 33 33 37 42 50 60 63 63 61 60 60 59 58 61 59 52 42 36 34 31 28 28 25 19 19 18 16 15 17 20 24 32 42 45 44 42 40 40 41 45 52 52 46 39 35 32 27 23 20 18 17 15 15 15 15 15 14 13 13 14
36 37 39 39 38 40 40 43 52 62 67 67 65 63 60 57 59 61 60 55 51 51 48 45 43 40 36 38 40 37 30 29 33 35 38 44 47 48 45 43 42 42 46 53 54 49 42 38 35 29 24 21 19 19 19 17 17 16 16 16 15 14 14
41 43 46 47 45 45 44 44 51 60 67 68 67 66 63 60 58 57 58 58 57 57 57 55 55 53 52 52 53 49 43 41 42 42 43 46 49 50 48 45 44 45 48 53 55 52 45 40 37 30 25 23 22 23 26 27 25 23 21 20 19 17 17
26 31 41 46 43 41 41 44 49 56 63 68 69 68 65 62 59 55 54 53 53 54 54 54 53 53 52 50 48 44 40 40 44 45 46 48 51 52 51 48 46 46 49 54 57 55 48 43 39 32 26 25 25 28 35 39 40 39 36 33 30 27 24
14 18 25 29 31 34 37 41 46 52 57 62 67 69 66 62 59 57 53 47 43 44 47 50 50 49 48 45 40 36 30 30 41 51 53 52 55 56 54 50 47 47 51 56 60 59 52 45 41 35 30 28 29 34 39 45 49 50 50 48 45 40 37
10 13 14 12 14 20 24 27 31 38 45 52 61 63 58 54 52 51 47 42 39 39 42 46 48 48 49 47 40 32 21 17 33 55 61 57 57 57 55 52 49 49 53 58 62 62 56 49 44 40 37 34 36 39 43 49 54 55 56 56 54 52 51
8 10 9 7 5 7 9 10 13 21 32 42 50 52 46 42 41 40 39 38 39 39 40 41 44 46 48 47 42 33 19 11 24 50 63 62 59 57 55 53 51 53 57 60 63 64 59 51 46 45 45 44 44 44 46 51 55 58 59 59 58 58 57
9 8 7 6 4 4 5 5 6 14 25 34 40 40 35 32 34 36 39 40 40 41 40 38 41 45 43 40 38 33 24 17 23 41 56 62 62 60 57 56 56 57 61 62 63 63 60 52 48 48 49 50 50 49 50 53 57 61 64 64 62 61 61
5 5 4 5 4 4 4 4 5 10 17 22 26 25 20 19 24 29 32 33 34 38 39 38 43 45 37 29 29 30 32 35 37 39 46 56 65 68 67 65 63 62 63 62 61 61 59 53 48 48 50 52 53 53 55 57 60 63 66 67 65 64 65
5 4 4 3 4 4 4 4 5 6 8 10 11 10 9 11 16 19 21 23 26 30 34 39 45 45 34 25 25 31 43 51 50 45 43 48 58 64 64 64 63 62 60 58 56 56 55 50 46 47 50 52 54 55 57 59 61 63 65 67 67 67 67
8 8 6 4 5 5 4 4 4 4 5 5 4 5 5 7 9 10 12 15 17 19 24 32 38 38 33 26 25 35 51 56 52 49 45 41 41 43 45 48 52 54 54 52 50 51 50 47 48 51 54 56 59 61 63 65 66 67 68 70 71 71 70
8 8 7 6 7 7 6 6 5 5 5 5 5 5 5 5 5 5 6 7 8 9 12 17 22 25 27 23 22 36 52 55 51 50 47 43 40 37 35 37 42 47 50 48 47 47 47 49 52 57 60 63 66 67 68 69 70 70 68 66 66 68 70
8 9 8 8 8 7 7 7 7 7 6 5 5 6 5 6 5 4 5 5 4 4 5 6 9 13 17 18 21 34 49 53 51 49 47 46 45 40 34 33 37 43 46 47 49 51 52 55 59 62 65 67 67 67 66 65 62 58 54 49 46 47 50
9 10 9 9 9 8 7 7 7 7 7 6 6 6 6 7 7 5 6 6 5 6 6 5 6 8 11 15 22 34 46 50 50 49 47 47 46 42 39 38 39 42 44 46 50 52 53 55 58 60 61 61 60 60 59 58 55 51 47 42 36 34 33
11 11 10 10 10 9 8 8 8 7 8 7 6 7 7 7 7 7 7 7 7 8 8 7 8 9 10 14 22 30 37 42 46 47 47 47 46 46 46 45 44 45 44 43 44 46 47 48 50 52 54 55 57 58 59 60 60 60 56 50 45 41 38
14 13 12 11 10 10 9 9 8 8 8 8 7 8 8 8 8 8 8 8 8 9 9 9 8 9 10 13 18 21 22 27 36 43 45 44 44 45 46 44 45 49 51 51 53 53 53 53 54 54 55 56 57 58 58 58 59 61 59 56 54 51 47
19 16 14 12 11 11 10 9 10 9 9 9 9 9 9 10 10 9 9 8 8 9 9 9 9 9 9 10 13 16 15 15 22 32 40 42 41 41 40 38 41 49 56 59 60 61 62 61 60 57 57 57 56 56 55 54 56 60 62 61 59 56 51
24 21 18 15 13 12 11 10 10 10 10 10 10 11 11 12 12 11 11 10 10 9 10 10 10 10 10 9 10 12 12 12 13 20 30 36 38 38 36 34 36 44 54 58 59 61 62 62 61 61 61 59 58 59 59 58 59 63 63 57 53 51 48
27 27 24 20 18 16 14 12 11 11 11 11 11 12 12 12 13 13 13 13 12 11 10 11 11 12 11 11 10 9 9 10 10 12 18 26 33 35 36 39 42 48 57 63 63 63 62 62 64 67 66 62 60 60 60 60 62 61 54 43 38 39 40
29 29 28 26 24 20 17 15 13 13 13 13 13 13 13 13 14 14 15 15 15 14 13 13 13 13 13 13 12 11 9 9 10 10 13 19 26 31 35 42 48 54 62 67 68 66 63 62 63 64 62 59 57 57 58 59 59 55 47 39 34 33 33
29 31 30 28 27 25 22 20 17 16 16 16 15 15 15 15 15 15 15 16 16 16 16 15 15 15 15 15 15 14 12 11 10 11 11 14 20 26 31 35 40 45 52 58 63 65 64 61 59 58 56 57 58 59 60 59 55 48 41 36 32 28 27
29 31 31 31 30 27 26 24 22 21 20 20 19 18 17 17 17 16 17 17 17 17 17 17 17 16 15 16 16 16 15 14 12 11 12 13 15 19 21 23 25 30 36 42 51 59 61 59 56 54 52 53 53 54 54 54 48 40 33 29 27 25 24
30 30 31 32 31 29 28 28 26 25 24 23 22 20 19 19 18 18 18 18 18 18 18 17 18 17 16 17 17 17 17 17 15 14 14 14 14 16 18 21 26 32 36 40 46 52 54 54 53 49 46 44 44 44 43 41 37 33 29 27 26 25 24
30 30 31 31 31 30 30 29 28 28 27 25 24 23 22 21 21 21 21 20 20 20 19 19 19 19 18 18 18 18 18 19 18 16 15 15 15 16 18 21 26 30 32 34 37 40 42 43 42 39 37 37 36 36 34 31 30 29 28 27 26 25 26